Location: Calberlah
(52.4230°N, 10.6240°E)
Time: 20:00:38
(UTC+00:00)

Cosmos 2298 Rocket - Pass Details

Date: 19 May 2025
Orbit: 773 x 782 km, 74.0° (Epoch: 20 June)

Event Time Altitude Azimuth Distance (km) Brightness Sun altitude
Rises 21:16:31 0° 332° (NNW) 3,282 9.4 -13.2°
Reaches altitude 10° 21:18:56 10° 329° (NNW) 2,349 8.0 -13.4°
Maximum altitude 21:24:11 60° 251° (WSW) 895 4.4 -13.8°
Enters shadow 21:27:58 19° 176° (S) 1,808 5.4 -14.0°
